[[{"header":{"parameterUnit":"m.s-1","parameterCategory":1,"la1":30.2991,"la2":30.254,"lo1":-89.0895,"lo2":-89.0444,"dy":0.0017,"dx":0.0017,"nx":28,"ny":28,"refTime":"2025-07-14T09:00:00:Z","depth":0,"parameterNumber":2,"parameterNumberName":"U-component_of_WINDS"},"data":[0,0,0,0,0,0,0,0,0,0,0,0,0,0,0,0,0,0,0,0,0,0,0,0,0,0,0,0,0,0,0,0,0,0,0,0,0,0,0,0,0,0,0,0,0,0,0,0,0,0,0,0,0,0,0,0,0,0,3.4488,3.4489,0,3.4559,3.456,3.4561,3.4497,3.4495,3.4492,3.449,3.4563,3.4568,3.4572,0,0,0,0,0,0,0,0,0,0,0,0,0,3.4298,3.4302,3.4488,3.4489,3.4489,3.4559,3.456,3.4561,3.4498,3.4495,3.4492,3.4489,3.4562,3.4567,3.4572,0,0,0,0,0,0,0,0,0,0,0,0,0,3.4376,3.4303,3.4488,3.4466,3.4465,3.4559,3.456,3.4561,3.4499,3.4495,3.4491,3.4487,3.456,3.4567,3.4573,3.4692,0,0,3.4593,3.4596,0,0,0,0,0,0,0,0,3.4372,3.4383,3.4469,3.4468,3.4467,3.4515,3.452,3.4605,3.45,3.4486,3.449,3.4485,3.4551,3.4558,3.458,3.4695,3.4698,3.4594,3.4598,3.4601,3.4602,0,0,0,0,0,0,0,3.4367,3.438,3.4516,3.447,3.4469,3.4454,3.4461,3.4536,3.4539,3.4487,3.4482,3.4492,3.4549,3.4574,3.4581,3.4699,3.4594,3.4599,3.4604,3.4606,3.4918,3.4922,0,0,0,0,0,0,3.4363,3.4376,3.4514,3.4518,3.4409,3.4461,3.4468,3.4504,3.4538,3.454,3.4495,3.4488,3.4564,3.4573,3.4583,3.4726,3.4601,3.4607,3.461,3.4914,3.4919,3.4924,0,0,0,0,0,0,3.436,3.4376,3.4511,3.4446,3.4462,3.4468,3.4509,3.4507,3.4531,3.4544,3.4545,3.4519,3.4562,3.4574,3.4666,3.4727,3.461,3.4616,3.4909,3.4916,3.4922,3.5011,0,0,0,0,0,0,3.4354,3.4375,3.442,3.4447,3.4466,3.4592,3.4512,3.4511,3.4543,3.4535,3.4567,3.4569,3.4559,3.4656,3.4672,3.4734,3.4621,3.4903,3.4912,3.4919,3.5003,3.502,3.5034,0,0,0,0,0,3.4348,3.4441,3.4422,3.4439,3.4521,3.4595,3.4606,3.4593,3.4548,3.4593,3.4602,3.4568,3.4718,3.4666,3.4684,3.4749,3.4899,3.4909,3.4919,3.4995,3.5016,3.5034,0,0,0,0,0,0,3.442,3.4445,3.4423,3.4529,3.4561,3.4584,3.4641,3.4615,3.4661,3.4651,3.4634,3.4642,3.4739,3.4753,3.4695,3.4867,3.4802,3.4815,3.4854,3.4874,3.489,3.4884,3.4626,0,0,0,0,0,3.4449,3.4506,3.4525,3.4616,3.4633,3.4635,3.4666,3.4654,3.4686,3.4699,3.4715,3.4748,3.4803,3.4839,3.489,3.5005,3.5011,3.5058,3.5074,3.5087,3.5099,3.5163,3.5184,3.4956,3.4956,3.4956,0,0,3.4507,3.4528,3.4565,3.4631,3.4654,3.4715,3.4646,3.4713,3.4758,3.4709,3.4797,3.481,3.4846,3.495,3.4997,3.4965,3.5164,3.51,3.511,3.5115,3.5175,3.5197,3.5216,3.4963,3.4961,3.496,0,0,3.4646,3.4667,3.4746,3.4771,3.4807,3.4808,3.4828,3.4856,3.4863,3.4951,3.4916,3.497,3.5065,3.5092,3.5119,3.5271,3.5242,3.5288,3.5372,3.5434,3.5452,3.5468,3.5524,3.5544,3.53,3.5301,3.5301,0,3.4714,3.4804,3.479,3.486,3.4891,3.485,3.4931,3.4956,3.5008,3.503,3.4994,3.5113,3.5134,3.5245,3.5283,3.5305,3.5328,3.5284,3.5451,3.5466,3.5481,3.5534,3.5555,3.5306,3.5305,3.5305,3.5304,0,3.4888,3.4951,3.5011,3.5062,3.51,3.5175,3.5173,3.5213,3.5198,3.5204,3.5295,3.5319,3.5376,3.5401,3.5387,3.5511,3.5491,3.5453,3.5387,3.5509,3.5558,3.5578,3.5314,3.5312,3.531,3.5309,0,0,3.5072,3.5116,3.5138,3.5162,3.5201,3.525,3.5324,3.538,3.5415,3.5453,3.5515,3.5598,3.5564,3.5594,3.5583,3.5638,3.5759,3.5593,3.5594,3.5624,3.5899,3.5928,3.5951,3.574,3.5744,3.5747,3.5897,0,3.5213,3.5342,3.5332,3.5454,3.5514,3.5478,3.5543,3.5574,3.5582,3.5634,3.5642,3.5701,3.5651,3.567,3.5722,3.5733,3.5814,3.5722,3.5799,3.5802,3.5792,3.5977,3.6007,3.6147,3.5916,3.5919,3.5921,0,3.5393,3.5438,3.5567,3.5599,3.5623,3.5682,3.5733,3.5783,3.5819,3.5821,3.5856,3.5837,3.5913,3.5847,3.5953,3.589,3.5922,3.5932,3.5937,3.5944,3.5869,3.599,3.6191,3.6213,3.5952,3.5949,3.5947,0,3.5517,3.5609,3.5698,3.572,3.5759,3.5801,3.5819,3.5851,3.5886,3.5931,3.5954,3.6008,3.6037,3.608,3.6076,3.6028,3.6185,3.6117,3.6189,3.619,3.6224,3.6222,3.6434,3.6244,3.6243,3.6243,3.6242,0,3.5675,3.5755,3.5754,3.5809,3.5899,3.5888,3.5977,3.5991,3.602,3.6078,3.605,3.6105,3.6097,3.6152,3.615,3.624,3.6253,3.6257,3.6256,3.626,3.626,3.628,3.6271,3.6248,3.6247,3.6246,3.6245,0,3.5827,3.583,3.5925,3.5955,3.5964,3.6029,3.6055,3.6108,3.6114,3.6188,3.6204,3.6214,3.6279,3.628,3.6353,3.6351,3.6461,3.6448,3.6449,3.6447,3.6519,3.6513,3.6752,3.6784,3.6573,3.6575,3.6576,0,3.5928,3.5989,3.6026,3.6063,3.6084,3.6144,3.618,3.6172,3.6211,3.6258,3.6305,3.6367,3.6416,3.6521,3.6535,3.6592,3.6581,3.6661,3.6589,3.6592,3.6583,3.658,3.6587,3.6675,3.6677,3.6679,3.6681,0,3.6107,3.6106,3.6159,3.6213,3.6257,3.6299,3.6338,3.637,3.6367,3.6413,3.6478,3.6517,3.6593,3.6655,3.6711,3.673,3.6706,3.6704,3.6723,3.6728,3.6727,3.673,3.6488,3.6698,3.6696,3.6695,3.6694,3.6693,3.6237,3.6291,3.6326,3.6386,3.6415,3.6453,3.6505,3.6518,3.6573,3.6634,3.6627,3.67,3.6737,3.6809,3.6834,3.6892,3.6864,3.6893,3.69,3.6907,3.6916,3.6718,3.6902,3.6901,3.6901,3.6901,3.69,0,3.6416,3.6437,3.6493,3.6549,3.6598,3.6571,3.6613,3.6656,3.6721,3.6757,3.6806,3.6883,3.6944,3.6964,3.7024,3.7067,3.7058,3.7083,3.708,3.7085,3.6937,3.6914,3.709,3.709,3.709,3.709,3.709,3.709,3.6515,3.6604,3.6608,3.6713,3.6733,3.6806,3.6832,3.6868,3.6897,3.6984,3.7035,3.7047,3.7078,3.714,3.7195,3.72,3.7223,3.7254,3.7254,3.7114,3.7095,3.7077,3.7056,3.7259,3.7259,3.7397,3.7399,3.74]},{"header":{"parameterUnit":"m.s-1","parameterCategory":1,"la1":30.2991,"la2":30.254,"lo1":-89.0895,"lo2":-89.0444,"dy":0.0017,"dx":0.0017,"nx":28,"ny":28,"refTime":"2025-07-14T09:00:00:Z","depth":0,"parameterNumber":3,"parameterNumberName":"V-component_of_WINDS"},"data":[0,0,0,0,0,0,0,0,0,0,0,0,0,0,0,0,0,0,0,0,0,0,0,0,0,0,0,0,0,0,0,0,0,0,0,0,0,0,0,0,0,0,0,0,0,0,0,0,0,0,0,0,0,0,0,0,0,0,-3.2669,-3.267,0,-3.2784,-3.2785,-3.2786,-3.2771,-3.2769,-3.2768,-3.2766,-3.2883,-3.2887,-3.2892,0,0,0,0,0,0,0,0,0,0,0,0,0,-3.2437,-3.2441,-3.2669,-3.267,-3.2671,-3.2783,-3.2785,-3.2786,-3.2772,-3.2769,-3.2767,-3.2765,-3.2881,-3.2887,-3.2893,0,0,0,0,0,0,0,0,0,0,0,0,0,-3.2543,-3.2442,-3.2668,-3.2678,-3.268,-3.2783,-3.2785,-3.2787,-3.2772,-3.2769,-3.2766,-3.2764,-3.2879,-3.2886,-3.2893,-3.2995,0,0,-3.2916,-3.2919,0,0,0,0,0,0,0,0,-3.2537,-3.2552,-3.2675,-3.2677,-3.268,-3.276,-3.2746,-3.2856,-3.2773,-3.2737,-3.2766,-3.2762,-3.2844,-3.2854,-3.2882,-3.3,-3.3005,-3.2916,-3.2921,-3.2924,-3.2926,0,0,0,0,0,0,0,-3.253,-3.2546,-3.2714,-3.2677,-3.268,-3.2676,-3.2688,-3.2767,-3.2805,-3.274,-3.2739,-3.2753,-3.2845,-3.2875,-3.2884,-3.3007,-3.2916,-3.2922,-3.2927,-3.293,-3.3215,-3.3219,0,0,0,0,0,0,-3.252,-3.254,-3.271,-3.2717,-3.26,-3.2683,-3.2696,-3.2737,-3.2804,-3.2811,-3.2755,-3.2752,-3.2864,-3.2876,-3.2888,-3.3012,-3.2924,-3.2931,-3.2935,-3.3212,-3.3216,-3.322,0,0,0,0,0,0,-3.2515,-3.2535,-3.2706,-3.2629,-3.265,-3.269,-3.2736,-3.2741,-3.2771,-3.2816,-3.2822,-3.2779,-3.2862,-3.2878,-3.2969,-3.3016,-3.2934,-3.294,-3.3209,-3.3214,-3.3218,-3.326,0,0,0,0,0,0,-3.2508,-3.2534,-3.2572,-3.263,-3.2654,-3.2784,-3.2739,-3.2745,-3.2784,-3.278,-3.2839,-3.2847,-3.2861,-3.2958,-3.2976,-3.3025,-3.2946,-3.3204,-3.3211,-3.3216,-3.3255,-3.3266,-3.3276,0,0,0,0,0,-3.25,-3.2579,-3.2574,-3.2595,-3.2704,-3.2787,-3.2801,-3.2816,-3.2787,-3.2827,-3.2856,-3.2845,-3.3008,-3.2967,-3.2987,-3.3039,-3.3201,-3.3209,-3.3216,-3.325,-3.3264,-3.3275,0,0,0,0,0,0,-3.2525,-3.2587,-3.2582,-3.2682,-3.2729,-3.2784,-3.2834,-3.283,-3.2886,-3.2881,-3.2897,-3.291,-3.3002,-3.303,-3.2983,-3.3141,-3.3101,-3.3112,-3.312,-3.3133,-3.3143,-3.3135,-3.2952,0,0,0,0,0,-3.2543,-3.2605,-3.2655,-3.2739,-3.2763,-3.2795,-3.2831,-3.2839,-3.2889,-3.2909,-3.2944,-3.2993,-3.3055,-3.3096,-3.3155,-3.3259,-3.3272,-3.3304,-3.3315,-3.3323,-3.3333,-3.3391,-3.3406,-3.3243,-3.3243,-3.3243,0,0,-3.2579,-3.262,-3.2658,-3.2745,-3.2782,-3.2847,-3.2811,-3.2881,-3.2929,-3.2919,-3.3007,-3.3035,-3.309,-3.3188,-3.3233,-3.3214,-3.3381,-3.3332,-3.3339,-3.3344,-3.34,-3.3415,-3.3429,-3.3248,-3.3247,-3.3247,0,0,-3.2677,-3.2715,-3.2789,-3.2828,-3.2886,-3.2907,-3.2924,-3.2981,-3.2999,-3.3088,-3.3082,-3.3139,-3.3246,-3.3286,-3.3321,-3.3437,-3.3429,-3.3456,-3.3509,-3.3566,-3.3579,-3.359,-3.3632,-3.3647,-3.3465,-3.3465,-3.3465,0,-3.2715,-3.2812,-3.2827,-3.2898,-3.2937,-3.2932,-3.3007,-3.3044,-3.3118,-3.3145,-3.3123,-3.3258,-3.3295,-3.3402,-3.3431,-3.3459,-3.348,-3.3449,-3.3576,-3.3587,-3.3598,-3.3639,-3.3654,-3.3468,-3.3468,-3.3468,-3.3467,0,-3.2856,-3.2923,-3.2976,-3.3049,-3.3094,-3.3166,-3.3193,-3.3236,-3.3241,-3.3264,-3.3355,-3.3399,-3.3469,-3.3495,-3.3499,-3.3604,-3.359,-3.3572,-3.3531,-3.3616,-3.3655,-3.367,-3.3472,-3.3471,-3.3471,-3.347,0,0,-3.2973,-3.3054,-3.3073,-3.3107,-3.3171,-3.3224,-3.3297,-3.3365,-3.3402,-3.3454,-3.3516,-3.3607,-3.3591,-3.363,-3.3639,-3.3689,-3.3779,-3.3664,-3.3666,-3.3685,-3.3898,-3.3912,-3.393,-3.3775,-3.3778,-3.378,-3.3894,0,-3.3078,-3.3207,-3.3224,-3.3339,-3.3402,-3.3399,-3.3463,-3.3509,-3.3533,-3.3591,-3.3617,-3.3682,-3.3655,-3.3679,-3.3728,-3.3758,-3.3822,-3.375,-3.3833,-3.3836,-3.3819,-3.395,-3.3964,-3.4069,-3.3909,-3.3911,-3.3913,0,-3.3218,-3.3275,-3.3396,-3.3453,-3.348,-3.3537,-3.3602,-3.3657,-3.371,-3.3724,-3.3769,-3.3772,-3.3848,-3.3805,-3.391,-3.3861,-3.3896,-3.3916,-3.392,-3.3929,-3.388,-3.3962,-3.4103,-3.4119,-3.3937,-3.3935,-3.3933,0,-3.3292,-3.3399,-3.3485,-3.3514,-3.3582,-3.3623,-3.3653,-3.3703,-3.3744,-3.3801,-3.3827,-3.3892,-3.3927,-3.3978,-3.3999,-3.3965,-3.4103,-3.4061,-3.4118,-3.4117,-3.4147,-3.4145,-3.4296,-3.4169,-3.4169,-3.4168,-3.4168,0,-3.3408,-3.3483,-3.352,-3.3573,-3.3657,-3.3676,-3.3758,-3.3787,-3.3832,-3.3891,-3.3892,-3.3948,-3.3972,-3.4032,-3.4049,-3.4134,-3.415,-3.4164,-3.4168,-3.4164,-3.4162,-3.4187,-3.4181,-3.4173,-3.4172,-3.4171,-3.417,0,-3.3505,-3.3532,-3.3627,-3.3684,-3.3701,-3.376,-3.3809,-3.3861,-3.3885,-3.3961,-3.3979,-3.4017,-3.4088,-3.4114,-3.4199,-3.4211,-3.431,-3.4307,-3.4292,-3.4293,-3.4348,-3.4343,-3.4521,-3.4546,-3.4402,-3.4403,-3.4404,0,-3.3577,-3.3635,-3.3699,-3.3739,-3.3771,-3.3835,-3.3877,-3.3898,-3.3941,-3.4007,-3.4051,-3.4122,-3.4179,-3.4292,-3.4327,-3.4393,-3.4392,-3.445,-3.4402,-3.4397,-3.4394,-3.439,-3.4397,-3.4459,-3.446,-3.4462,-3.4463,0,-3.3703,-3.3714,-3.3774,-3.384,-3.389,-3.3943,-3.3994,-3.4027,-3.4056,-3.4105,-3.4177,-3.4221,-3.431,-3.438,-3.4447,-3.4479,-3.4476,-3.4478,-3.4494,-3.4491,-3.4481,-3.4488,-3.4317,-3.4473,-3.4472,-3.4471,-3.4471,-3.447,-3.379,-3.3842,-3.3895,-3.3963,-3.4004,-3.4052,-3.4104,-3.4135,-3.4196,-3.4269,-3.4278,-3.4356,-3.4409,-3.45,-3.4535,-3.4597,-3.4581,-3.4605,-3.4611,-3.4617,-3.4621,-3.4471,-3.4609,-3.4609,-3.4608,-3.4608,-3.4608,0,-3.3917,-3.3951,-3.4013,-3.4085,-3.4139,-3.4132,-3.4189,-3.4234,-3.4303,-3.4352,-3.4409,-3.4493,-3.4561,-3.4603,-3.4672,-3.4713,-3.4714,-3.4731,-3.4728,-3.4735,-3.4631,-3.461,-3.4729,-3.4729,-3.4729,-3.4729,-3.4729,-3.4729,-3.3989,-3.4076,-3.4094,-3.4201,-3.4236,-3.4312,-3.4346,-3.439,-3.443,-3.4524,-3.4581,-3.4608,-3.4655,-3.4727,-3.479,-3.4801,-3.4826,-3.4845,-3.4854,-3.4755,-3.4743,-3.4731,-3.4711,-3.485,-3.485,-3.4953,-3.4954,-3.4955]}]]